Location: Perugia
(43.1330°N, 12.3670°E)
Time: 06:47:57
(UTC+01:00)

ISS - Pass Details

Date: 31 January 2021
Orbit: 417 x 422 km, 51.6° (Epoch: 08 March)

Event Time Altitude Azimuth Distance (km) Brightness Sun altitude
Rises 18:04:11 0° 301° (WNW) 2,373 0.8 -8.1°
Reaches altitude 10° 18:06:37 10° 318° (NW) 1,509 -0.6 -8.6°
Maximum altitude 18:09:19 22° 11° (N) 993 -2.1 -9.0°
Enters shadow 18:11:31 13° 58° (ENE) 1,363 -1.8 -9.4°
